Location: Eldred Sherwood Park Lake Dam
(42.9416°N, 93.5655°W)
Time: 12:04:13
(UTC+00:00)

Explorer 11/Cluster Stage 4 - Pass Details

Date: 16 December 2025
Orbit: 463 x 1180 km, 28.8° (Epoch: 13 January)

Event Time Altitude Azimuth Distance (km) Brightness Sun altitude
Rises 23:57:02 0° 226° (SW) 4,049 11.5 -13.4°
Reaches altitude 10° 00:00:43 10° 211° (SSW) 3,072 10.4 -14.1°
Maximum altitude 00:06:05 21° 167° (SSE) 2,298 9.0 -15.0°
Drops below altitude 10° 00:11:09 10° 122° (ESE) 2,872 9.1 -15.9°
Enters shadow 00:11:36 - 120° (ESE) 2,973 9.1 -16.0°
